Hourly Weather Godzislaw

Today, 15 May, Saturday

Time Temperature Precipitation Wind Pressure Humidity
00:00 +9°C° 0 mm 2 mps 740 mmHg 94%
01:00 +9°C° 0 mm 2 mps 740 mmHg 95%
02:00 +9°C° 0.3 mm 3 mps 741 mmHg 95%
03:00 +9°C° 0.3 mm 3 mps 741 mmHg 95%
04:00 +9°C° 0.3 mm 3 mps 741 mmHg 96%
05:00 +9°C° 0.4 mm 3 mps 741 mmHg 95%
06:00 +9°C° 0.4 mm 3 mps 741 mmHg 95%
07:00 +8°C° 0.4 mm 3 mps 742 mmHg 94%
08:00 +10°C° 0 mm 4 mps 742 mmHg 85%
09:00 +12°C° 0 mm 4 mps 742 mmHg 75%
10:00 +13°C° 0 mm 4 mps 742 mmHg 65%
11:00 +14°C° 0 mm 4 mps 742 mmHg 62%
12:00 +16°C° 0 mm 3 mps 742 mmHg 58%
13:00 +17°C° 0 mm 3 mps 742 mmHg 54%
14:00 +17°C° 0.1 mm 3 mps 742 mmHg 56%
15:00 +17°C° 0.1 mm 2 mps 741 mmHg 57%
16:00 +17°C° 0.1 mm 2 mps 741 mmHg 59%
17:00 +16°C° 0.5 mm 2 mps 741 mmHg 67%
18:00 +15°C° 0.5 mm 2 mps 741 mmHg 75%
19:00 +13°C° 0.5 mm 2 mps 741 mmHg 83%
20:00 +12°C° 0.5 mm 3 mps 741 mmHg 84%
21:00 +11°C° 0.5 mm 3 mps 741 mmHg 86%
22:00 +11°C° 0.5 mm 3 mps 741 mmHg 88%
23:00 +11°C° 0.1 mm 3 mps 741 mmHg 90%

Tomorrow, 16 May, Sunday

Time Temperature Precipitation Wind Pressure Humidity
00:00 +10°C° 0.1 mm 3 mps 741 mmHg 92%
01:00 +9°C° 0.1 mm 3 mps 740 mmHg 94%
02:00 +9°C° 0.1 mm 3 mps 740 mmHg 94%
03:00 +9°C° 0.1 mm 3 mps 740 mmHg 94%
04:00 +9°C° 0.1 mm 3 mps 740 mmHg 94%
05:00 +10°C° 0 mm 3 mps 740 mmHg 92%
06:00 +10°C° 0 mm 3 mps 740 mmHg 90%
07:00 +11°C° 0 mm 3 mps 740 mmHg 88%
08:00 +12°C° 0.1 mm 4 mps 740 mmHg 78%
09:00 +14°C° 0.1 mm 4 mps 740 mmHg 69%
10:00 +15°C° 0.1 mm 5 mps 740 mmHg 60%
11:00 +15°C° 0 mm 4 mps 740 mmHg 56%
12:00 +17°C° 0 mm 4 mps 740 mmHg 53%
13:00 +17°C° 0 mm 4 mps 740 mmHg 49%
14:00 +17°C° 0.1 mm 4 mps 740 mmHg 52%
15:00 +17°C° 0.1 mm 3 mps 740 mmHg 55%
16:00 +16°C° 0.1 mm 3 mps 740 mmHg 58%
17:00 +15°C° 0.1 mm 2 mps 740 mmHg 65%
18:00 +14°C° 0.1 mm 2 mps 740 mmHg 72%
19:00 +13°C° 0.1 mm 1 mps 740 mmHg 79%
20:00 +12°C° 0 mm 1 mps 740 mmHg 82%
21:00 +11°C° 0 mm 1 mps 740 mmHg 86%
22:00 +10°C° 0 mm 1 mps 740 mmHg 89%
23:00 +10°C° 0 mm 1 mps 739 mmHg 89%

Day after tomorrow, 17 May, Monday

Time Temperature Precipitation Wind Pressure Humidity
00:00 +9°C° 0 mm 1 mps 739 mmHg 90%
01:00 +8°C° 0 mm 2 mps 739 mmHg 91%
02:00 +8°C° 0 mm 2 mps 739 mmHg 92%
03:00 +8°C° 0 mm 2 mps 739 mmHg 93%
04:00 +7°C° 0 mm 2 mps 739 mmHg 94%
05:00 +9°C° 0 mm 3 mps 739 mmHg 90%
06:00 +10°C° 0 mm 3 mps 739 mmHg 86%
07:00 +11°C° 0 mm 4 mps 740 mmHg 82%
08:00 +11°C° 0.4 mm 3 mps 740 mmHg 82%
09:00 +12°C° 0.4 mm 3 mps 740 mmHg 81%
10:00 +12°C° 0.4 mm 3 mps 740 mmHg 80%
11:00 +13°C° 0.3 mm 3 mps 740 mmHg 75%
12:00 +14°C° 0.3 mm 3 mps 740 mmHg 71%
13:00 +16°C° 0.3 mm 3 mps 740 mmHg 66%
14:00 +16°C° 0.3 mm 3 mps 740 mmHg 65%
15:00 +16°C° 0.3 mm 3 mps 739 mmHg 65%
16:00 +16°C° 0.3 mm 3 mps 739 mmHg 64%
17:00 +15°C° 0.5 mm 2 mps 739 mmHg 72%
18:00 +14°C° 0.5 mm 2 mps 740 mmHg 79%
19:00 +13°C° 0.5 mm 2 mps 740 mmHg 86%
20:00 +12°C° 0 mm 2 mps 740 mmHg 89%
21:00 +10°C° 0 mm 2 mps 740 mmHg 91%
22:00 +9°C° 0 mm 2 mps 740 mmHg 94%
23:00 +8°C° 0 mm 2 mps 740 mmHg 95%

18 May, Tuesday

Time Temperature Precipitation Wind Pressure Humidity
00:00 +8°C° 0 mm 2 mps 740 mmHg 96%
01:00 +7°C° 0 mm 2 mps 740 mmHg 97%
02:00 +7°C° 0 mm 2 mps 740 mmHg 97%
03:00 +7°C° 0 mm 2 mps 740 mmHg 98%
04:00 +6°C° 0 mm 2 mps 740 mmHg 98%
05:00 +7°C° 0 mm 2 mps 740 mmHg 97%
06:00 +8°C° 0 mm 3 mps 740 mmHg 95%
07:00 +9°C° 0 mm 3 mps 740 mmHg 94%
08:00 +10°C° 0.2 mm 3 mps 741 mmHg 92%
09:00 +10°C° 0.2 mm 4 mps 741 mmHg 90%
10:00 +11°C° 0.2 mm 4 mps 741 mmHg 89%
11:00 +10°C° 0.5 mm 5 mps 741 mmHg 84%
12:00 +12°C° 0.5 mm 5 mps 741 mmHg 79%
13:00 +13°C° 0.5 mm 6 mps 742 mmHg 75%
14:00 +13°C° 0.3 mm 5 mps 742 mmHg 73%
15:00 +13°C° 0.3 mm 5 mps 742 mmHg 71%
16:00 +13°C° 0.3 mm 5 mps 742 mmHg 70%
17:00 +12°C° 0.2 mm 4 mps 743 mmHg 74%
18:00 +11°C° 0.2 mm 3 mps 743 mmHg 79%
19:00 +10°C° 0.2 mm 2 mps 743 mmHg 84%
20:00 +9°C° 0 mm 2 mps 743 mmHg 87%
21:00 +8°C° 0 mm 3 mps 743 mmHg 91%
22:00 +7°C° 0 mm 3 mps 744 mmHg 94%
23:00 +7°C° 0 mm 3 mps 744 mmHg 94%

19 May, Wednesday

Time Temperature Precipitation Wind Pressure Humidity
00:00 +7°C° 0 mm 3 mps 744 mmHg 94%
01:00 +7°C° 0 mm 3 mps 744 mmHg 94%
02:00 +5°C° 0 mm 4 mps 744 mmHg 95%
03:00 +5°C° 0 mm 4 mps 744 mmHg 96%
04:00 +5°C° 0 mm 4 mps 744 mmHg 97%
05:00 +6°C° 0 mm 4 mps 745 mmHg 96%
06:00 +6°C° 0 mm 4 mps 745 mmHg 95%
07:00 +7°C° 0 mm 4 mps 745 mmHg 94%
08:00 +8°C° 0.1 mm 5 mps 745 mmHg 86%
09:00 +9°C° 0.1 mm 5 mps 746 mmHg 78%
10:00 +10°C° 0.1 mm 5 mps 746 mmHg 71%
11:00 +12°C° 0.2 mm 5 mps 746 mmHg 68%
12:00 +12°C° 0.2 mm 5 mps 746 mmHg 64%
13:00 +13°C° 0.2 mm 5 mps 746 mmHg 61%
14:00 +13°C° 0.1 mm 5 mps 746 mmHg 59%
15:00 +13°C° 0.1 mm 5 mps 746 mmHg 57%
16:00 +13°C° 0.1 mm 5 mps 746 mmHg 55%
17:00 +12°C° 0.1 mm 4 mps 746 mmHg 63%
18:00 +11°C° 0.1 mm 4 mps 746 mmHg 71%
19:00 +10°C° 0.1 mm 3 mps 746 mmHg 79%
20:00 +9°C° 0 mm 3 mps 746 mmHg 84%
21:00 +8°C° 0 mm 3 mps 746 mmHg 89%
22:00 +7°C° 0 mm 3 mps 746 mmHg 94%
23:00 +7°C° 0 mm 3 mps 746 mmHg 95%

20 May, Thursday

Time Temperature Precipitation Wind Pressure Humidity
00:00 +5°C° 0 mm 3 mps 746 mmHg 95%
01:00 +5°C° 0 mm 3 mps 746 mmHg 96%
02:00 +5°C° 0 mm 3 mps 746 mmHg 96%
03:00 +5°C° 0 mm 3 mps 746 mmHg 96%
04:00 +4°C° 0 mm 3 mps 746 mmHg 97%
05:00 +6°C° 0 mm 4 mps 746 mmHg 92%
06:00 +7°C° 0 mm 4 mps 747 mmHg 87%
07:00 +8°C° 0 mm 5 mps 747 mmHg 81%
08:00 +9°C° 0.1 mm 5 mps 747 mmHg 75%
09:00 +10°C° 0.1 mm 5 mps 747 mmHg 68%
10:00 +11°C° 0.1 mm 6 mps 747 mmHg 62%
11:00 +11°C° 0.1 mm 6 mps 747 mmHg 61%
12:00 +13°C° 0.1 mm 5 mps 747 mmHg 60%
13:00 +13°C° 0.1 mm 5 mps 746 mmHg 59%
14:00 +13°C° 0.1 mm 5 mps 746 mmHg 59%
15:00 +13°C° 0.1 mm 5 mps 746 mmHg 59%
16:00 +13°C° 0.1 mm 4 mps 746 mmHg 59%
17:00 +12°C° 0.1 mm 3 mps 745 mmHg 65%
18:00 +12°C° 0.1 mm 3 mps 745 mmHg 70%
19:00 +12°C° 0.1 mm 2 mps 745 mmHg 75%
20:00 +10°C° 0 mm 2 mps 744 mmHg 78%
21:00 +9°C° 0 mm 2 mps 744 mmHg 81%
22:00 +8°C° 0 mm 2 mps 744 mmHg 84%
23:00 +8°C° 0.1 mm 2 mps 744 mmHg 87%
Show more